Retour au catalogue

THOR ABLESTAR DEB

ActifLEO
NORAD 475·DEBRIS·🇺🇸 United States

Lancé Jun 29, 1961 depuis Cape Canaveral Space Force Station

Loading…

Prochains Passages (prochaines 24 heures)

TLE

FraisSource: Space-Track

Époque: Sep 14, 2026, 16:19 UTC

1 00475U 61015FM  26257.68054996  .00002047  00000-0  84428-3 0  9990
2 00475  66.2199 141.1180 0130592  50.0141 311.2330 14.24328870300531

Suivez THOR ABLESTAR DEB en temps réel avec AllMySat

Download on the App Store